カタログに戻る

HULIANWANG DIGUI-62

運用中通信PO
NORAD 65168·PAYLOAD·🇨🇳 China

打ち上げ Aug 13, 2025 から Wenchang Space Launch Site

Loading…

次のパス (今後24時間)

TLE

最新Source: Space-Track

元期: Sep 14, 2026, 21:31 UTC

1 65168U 25174E   26257.89713026  .00000014  00000-0 -10124-5 0  9992
2 65168  86.4921 221.5251 0002373  78.6177 281.5224 13.24401597 52666

AllMySatでHULIANWANG DIGUI-62をリアルタイム追跡

Download on the App Store